Regional Weather Roundup
Issued by NWS

Home | Current Version | Previous Version | Text Only | Print | Product List | Glossary On
Versions: 1 2 3 4 5 6 7 8 9 10 11 12 13 14 15 16 17 18 19 20 21 22 23 24 25 26 27 28 29 30 31 32 33 34 35 36 37 38 39 40 41 42 43 44 45 46 47 48 49 50
978
ASPQ40 PGUM 231012
RWRPQ
WEATHER ROUNDUP FOR THE MARIANAS AND MICRONESIA
NATIONAL WEATHER SERVICE TIYAN GU
800 PM CHST THU FEB 23 2017

GUZ001>004-231100-
MARIANA ISLANDS-

CITY           SKY/WX    TMP DP  RH WIND       PRES   REMARKS
GUAM AIRPORT   PTCLDY    81  75  83 E13       29.97R
ANDERSEN AFB   NOT AVBL
ROTA AIRPORT   MOCLDY    77  73  88 E13       29.98R
TINIAN AP      MOCLDY    79  73  83 NE18      29.97R
SAIPAN AP      MOCLDY    79  73  83 NE13      29.98R

$$

PMZ161-231100-
REPUBLIC OF PALAU-

CITY           SKY/WX    TMP DP  RH WIND       PRES   REMARKS
KOROR AP       MOCLDY    82  77  83 E10G17    29.83R HX  91
KOROR WSO      MOCLDY    82  75  78 E6        29.84R

$$

PMZ171>174-231100-
FEDERATED STATES OF MICRONESIA-

CITY           SKY/WX    TMP DP  RH WIND       PRES   REMARKS
YAP AIRPORT    MOCLDY    81  77  89 NE7       29.85R
CHUUK AP       CLOUDY    82  77  83 VRB6      29.86R HX  91
POHNPEI AP     NOT AVBL
POHNPEI WSO    CLOUDY    82  77  83 NE10      29.91R HX  91
KOSRAE AP      NOT AVBL

$$

PMZ181-231100-
REPUBLIC OF THE MARSHALL ISLANDS-

CITY           SKY/WX    TMP DP  RH WIND       PRES   REMARKS
KWAJALEIN AP   PTCLDY    82  73  74 NE20G25   29.92S
MAJURO AP      NOT AVBL
MAJURO WSO     MOCLDY    84  77  79 NE10      29.88R HX  94

$$





USA.gov is the U.S. government's official web portal to all federal, state and local government web resources and services.